Location: Shenandoah County Park
(38.9356°N, 78.4524°W)
Time: 01:11:19
(UTC-05:00)

Envisat - Pass Details

Date: 30 November 2021
Orbit: 764 x 766 km, 98.2° (Epoch: 23 January)

Event Time Altitude Azimuth Distance (km) Brightness Sun altitude
Rises 04:43:09 0° 20° (NNE) 3,240 6.4 -28.5°
Reaches altitude 10° 04:45:35 10° 27° (NNE) 2,309 5.7 -28.1°
Maximum altitude 04:50:25 43° 98° (E) 1,064 4.1 -27.1°
Drops below altitude 10° 04:55:13 10° 170° (S) 2,293 5.6 -26.2°
Sets 04:57:37 0° 177° (S) 3,214 6.4 -25.7°
